Location: Alpha Ridge Park
(39.3209°N, 76.9128°W)
Time: 10:21:32
(UTC-04:00)

Transit 2A - Pass Details

Date: 24 May 2019
Orbit: 593 x 966 km, 66.7° (Epoch: 23 June)

Event Time Altitude Azimuth Distance (km) Brightness Sun altitude
Rises 07:33:02 0° 190° (S) 3,500 9.2 18.3°
Reaches altitude 10° 07:35:33 10° 185° (S) 2,604 8.6 18.8°
Maximum altitude 07:41:26 50° 112° (ESE) 1,198 8.0 19.9°
Drops below altitude 10° 07:47:34 10° 39° (NE) 2,709 9.7 21.1°
Sets 07:50:13 0° 34° (NE) 3,654 10.2 21.6°
